This is the latest recevied weather packets stored in our database for station/object IU0SZS-10. If no packets are shown the sender has not sent any weather packets the latest 10 day(s).
| Time | Temp. | Humidity | Pressure | Rain* | Wind** | Luminosity | Snow |
|---|---|---|---|---|---|---|---|
| 1777897827 | 18.89° C | 39% | 919.5 hPa | - | - | - | - |
| 1777896927 | 17.78° C | 46% | 919.7 hPa | - | - | - | - |
| 1777896027 | 18.33° C | 43% | 919.7 hPa | - | - | - | - |
| 1777895127 | 16.67° C | 43% | 919.8 hPa | - | - | - | - |
| 1777894227 | 17.78° C | 43% | 919.8 hPa | - | - | - | - |
| 1777893326 | 18.89° C | 43% | 919.9 hPa | - | - | - | - |
| 1777892426 | 17.78° C | 46% | 920.1 hPa | - | - | - | - |
| 1777891558 | 17.22° C | 48% | 920.2 hPa | - | - | - | - |
| 1777891526 | 17.22° C | 48% | 920.2 hPa | - | - | - | - |
| 1777890626 | 16.67° C | 51% | 920.2 hPa | - | - | - | - |
| 1777889726 | 16.67° C | 47% | 920.1 hPa | - | - | - | - |
| 1777888868 | 16.67° C | 53% | 920.2 hPa | - | - | - | - |
| 1777888826 | 16.67° C | 53% | 920.2 hPa | - | - | - | - |
| 1777887925 | 15.56° C | 53% | 920.3 hPa | - | - | - | - |
| 1777887025 | 16.11° C | 59% | 920.3 hPa | - | - | - | - |
| 1777886125 | 16.11° C | 58% | 920.3 hPa | - | - | - | - |
| 1777885305 | 14.44° C | 61% | 920.3 hPa | - | - | - | - |
| 1777885225 | 14.44° C | 61% | 920.3 hPa | - | - | - | - |
| 1777884325 | 14.44° C | 60% | 920.2 hPa | - | - | - | - |
| 1777883425 | 13.89° C | 61% | 920.3 hPa | - | - | - | - |
| 1777882524 | 13.89° C | 63% | 920.2 hPa | - | - | - | - |
| 1777881624 | 13.33° C | 60% | 920.2 hPa | - | - | - | - |
| 1777880724 | 12.22° C | 65% | 920.1 hPa | - | - | - | - |
| 1777879823 | 11.67° C | 66% | 920.1 hPa | - | - | - | - |
| 1777878923 | 11.67° C | 68% | 920 hPa | - | - | - | - |
* Rain since midnight (hover to see other rain measurements)
** Current wind speed in m/s (hover to see current wind gust speed)